owner,sensor,date,latitude,longitude,vertical_datum,wind_speed,wind_to_direction,wind_speed_of_gust,qcFlag 
TCOON,ioos:station:TCOON:031:1,2016-09-01T00:00:00Z,28.4073,-96.7122,0.0,99.0,-9999.0,99.0,'11144222,99999999,11144222' 
TCOON,ioos:station:TCOON:031:1,2016-09-01T00:06:00Z,28.4073,-96.7122,0.0,99.0,-9999.0,99.0,'11144222,99999999,11144222' 
TCOON,ioos:station:TCOON:031:1,2016-09-01T00:12:00Z,28.4073,-96.7122,0.0,99.0,-9999.0,99.0,'11144222,99999999,11144222' 
TCOON,ioos:station:TCOON:031:1,2016-09-01T00:18:00Z,28.4073,-96.7122,0.0,0.9,307.0,1.2,'1111122,1111122,1111122' 
TCOON,ioos:station:TCOON:031:1,2016-09-01T00:24:00Z,28.4073,-96.7122,0.0,0.7,318.0,1.3,'11111222,11111222,11111222' 
TCOON,ioos:station:TCOON:031:1,2016-09-01T00:30:00Z,28.4073,-96.7122,0.0,0.9,319.0,1.0,'11111222,11111222,11111222' 
TCOON,ioos:station:TCOON:031:1,2016-09-01T00:36:00Z,28.4073,-96.7122,0.0,1.1,298.0,1.2,'11111222,11111222,11111222' 
TCOON,ioos:station:TCOON:031:1,2016-09-01T00:42:00Z,28.4073,-96.7122,0.0,1.2,283.0,1.5,'11111222,11111222,11111222' 
TCOON,ioos:station:TCOON:031:1,2016-09-01T00:48:00Z,28.4073,-96.7122,0.0,1.1,280.0,1.3,'11111222,11111222,11111222' 
TCOON,ioos:station:TCOON:031:1,2016-09-01T00:54:00Z,28.4073,-96.7122,0.0,99.0,-9999.0,99.0,'11144222,99999999,11144222' 
TCOON,ioos:station:TCOON:031:1,2016-09-01T01:00:00Z,28.4073,-96.7122,0.0,99.0,-9999.0,99.0,'11144222,99999999,11144222' 
TCOON,ioos:station:TCOON:031:1,2016-09-01T01:06:00Z,28.4073,-96.7122,0.0,0.9,308.0,1.3,'11111222,11111222,11111222' 
TCOON,ioos:station:TCOON:031:1,2016-09-01T01:12:00Z,28.4073,-96.7122,0.0,1.0,301.0,1.2,'11111222,11111222,11111222' 
TCOON,ioos:station:TCOON:031:1,2016-09-01T01:18:00Z,28.4073,-96.7122,0.0,1.0,301.0,1.2,'1111122,1111122,1111122' 
TCOON,ioos:station:TCOON:031:1,2016-09-01T01:24:00Z,28.4073,-96.7122,0.0,0.0,309.0,0.4,'11111222,11111222,11111222' 
TCOON,ioos:station:TCOON:031:1,2016-09-01T01:30:00Z,28.4073,-96.7122,0.0,0.5,338.0,0.6,'11111222,11111222,11111222' 
TCOON,ioos:station:TCOON:031:1,2016-09-01T01:36:00Z,28.4073,-96.7122,0.0,99.0,-9999.0,99.0,'11144222,99999999,11144222' 
TCOON,ioos:station:TCOON:031:1,2016-09-01T01:42:00Z,28.4073,-96.7122,0.0,99.0,-9999.0,99.0,'11144222,99999999,11144222' 
TCOON,ioos:station:TCOON:031:1,2016-09-01T01:48:00Z,28.4073,-96.7122,0.0,99.0,-9999.0,99.0,'11144222,99999999,11144222' 
TCOON,ioos:station:TCOON:031:1,2016-09-01T01:54:00Z,28.4073,-96.7122,0.0,99.0,-9999.0,99.0,'11144222,99999999,11144222' 
TCOON,ioos:station:TCOON:031:1,2016-09-01T02:00:00Z,28.4073,-96.7122,0.0,99.0,-9999.0,99.0,'11144222,99999999,11144222' 
TCOON,ioos:station:TCOON:031:1,2016-09-01T02:06:00Z,28.4073,-96.7122,0.0,99.0,-9999.0,99.0,'11144222,99999999,11144222' 
TCOON,ioos:station:TCOON:031:1,2016-09-01T02:12:00Z,28.4073,-96.7122,0.0,99.0,-9999.0,99.0,'11144222,99999999,11144222' 
TCOON,ioos:station:TCOON:031:1,2016-09-01T02:18:00Z,28.4073,-96.7122,0.0,0.5,12.0,1.1,'1111122,1111122,1111122' 
TCOON,ioos:station:TCOON:031:1,2016-09-01T02:24:00Z,28.4073,-96.7122,0.0,1.5,298.0,2.7,'11111222,11111222,11111222' 
TCOON,ioos:station:TCOON:031:1,2016-09-01T02:30:00Z,28.4073,-96.7122,0.0,1.5,359.0,2.1,'11111222,11111222,11111222' 
TCOON,ioos:station:TCOON:031:1,2016-09-01T02:36:00Z,28.4073,-96.7122,0.0,0.6,336.0,1.6,'11111222,11111222,11111222' 
TCOON,ioos:station:TCOON:031:1,2016-09-01T02:42:00Z,28.4073,-96.7122,0.0,1.5,277.0,1.9,'11111222,11111222,11111222' 
TCOON,ioos:station:TCOON:031:1,2016-09-01T02:48:00Z,28.4073,-96.7122,0.0,1.5,332.0,1.6,'11111222,11111222,11111222' 
TCOON,ioos:station:TCOON:031:1,2016-09-01T02:54:00Z,28.4073,-96.7122,0.0,0.7,293.0,1.5,'11111222,11111222,11111222' 
TCOON,ioos:station:TCOON:031:1,2016-09-01T03:00:00Z,28.4073,-96.7122,0.0,0.3,269.0,0.8,'11111222,11111222,11111222' 
TCOON,ioos:station:TCOON:031:1,2016-09-01T03:06:00Z,28.4073,-96.7122,0.0,1.3,287.0,1.5,'11111222,11111222,11111222' 
TCOON,ioos:station:TCOON:031:1,2016-09-01T03:12:00Z,28.4073,-96.7122,0.0,1.6,290.0,2.0,'11111222,11111222,11111222' 
TCOON,ioos:station:TCOON:031:1,2016-09-01T03:18:00Z,28.4073,-96.7122,0.0,1.6,290.0,2.0,'1111122,1111122,1111122' 
TCOON,ioos:station:TCOON:031:1,2016-09-01T03:24:00Z,28.4073,-96.7122,0.0,1.2,303.0,1.4,'11111222,11111222,11111222' 
TCOON,ioos:station:TCOON:031:1,2016-09-01T03:30:00Z,28.4073,-96.7122,0.0,1.5,309.0,1.7,'11111222,11111222,11111222' 
TCOON,ioos:station:TCOON:031:1,2016-09-01T03:36:00Z,28.4073,-96.7122,0.0,1.9,299.0,2.2,'11111222,11111222,11111222' 
TCOON,ioos:station:TCOON:031:1,2016-09-01T03:42:00Z,28.4073,-96.7122,0.0,1.7,301.0,2.5,'11111222,11111222,11111222' 
TCOON,ioos:station:TCOON:031:1,2016-09-01T03:48:00Z,28.4073,-96.7122,0.0,1.9,299.0,2.6,'11111222,11111222,11111222' 
TCOON,ioos:station:TCOON:031:1,2016-09-01T03:54:00Z,28.4073,-96.7122,0.0,2.3,298.0,2.7,'11111222,11111222,11111222' 
TCOON,ioos:station:TCOON:031:1,2016-09-01T04:00:00Z,28.4073,-96.7122,0.0,1.9,290.0,2.8,'11111222,11111222,11111222' 
TCOON,ioos:station:TCOON:031:1,2016-09-01T04:06:00Z,28.4073,-96.7122,0.0,1.7,291.0,2.4,'11111222,11111222,11111222' 
TCOON,ioos:station:TCOON:031:1,2016-09-01T04:12:00Z,28.4073,-96.7122,0.0,1.3,309.0,2.0,'11111222,11111222,11111222' 
TCOON,ioos:station:TCOON:031:1,2016-09-01T04:18:00Z,28.4073,-96.7122,0.0,1.3,309.0,2.0,'1111122,1111122,1111122' 
TCOON,ioos:station:TCOON:031:1,2016-09-01T04:24:00Z,28.4073,-96.7122,0.0,1.7,332.0,2.0,'11111222,11111222,11111222' 
TCOON,ioos:station:TCOON:031:1,2016-09-01T04:30:00Z,28.4073,-96.7122,0.0,1.6,334.0,2.2,'11111222,11111222,11111222' 
TCOON,ioos:station:TCOON:031:1,2016-09-01T04:36:00Z,28.4073,-96.7122,0.0,1.8,330.0,2.2,'11111222,11111222,11111222' 
TCOON,ioos:station:TCOON:031:1,2016-09-01T04:42:00Z,28.4073,-96.7122,0.0,1.9,319.0,2.4,'11111222,11111222,11111222' 
TCOON,ioos:station:TCOON:031:1,2016-09-01T04:48:00Z,28.4073,-96.7122,0.0,1.5,320.0,2.3,'11111222,11111222,11111222' 
TCOON,ioos:station:TCOON:031:1,2016-09-01T04:54:00Z,28.4073,-96.7122,0.0,1.5,328.0,2.0,'11111222,11111222,11111222' 
TCOON,ioos:station:TCOON:031:1,2016-09-01T05:00:00Z,28.4073,-96.7122,0.0,2.0,327.0,2.5,'11111222,11111222,11111222' 
TCOON,ioos:station:TCOON:031:1,2016-09-01T05:06:00Z,28.4073,-96.7122,0.0,2.1,333.0,2.9,'11111222,11111222,11111222' 
TCOON,ioos:station:TCOON:031:1,2016-09-01T05:12:00Z,28.4073,-96.7122,0.0,2.4,335.0,3.0,'11111222,11111222,11111222' 
TCOON,ioos:station:TCOON:031:1,2016-09-01T05:18:00Z,28.4073,-96.7122,0.0,2.4,335.0,3.0,'1111122,1111122,1111122' 
TCOON,ioos:station:TCOON:031:1,2016-09-01T05:24:00Z,28.4073,-96.7122,0.0,1.8,337.0,2.9,'11111222,11111222,11111222' 
TCOON,ioos:station:TCOON:031:1,2016-09-01T05:30:00Z,28.4073,-96.7122,0.0,1.8,348.0,2.3,'11111222,11111222,11111222' 
TCOON,ioos:station:TCOON:031:1,2016-09-01T05:36:00Z,28.4073,-96.7122,0.0,1.7,358.0,2.1,'11111222,11111222,11111222' 
TCOON,ioos:station:TCOON:031:1,2016-09-01T05:42:00Z,28.4073,-96.7122,0.0,1.9,356.0,2.2,'11111222,11111222,11111222' 
TCOON,ioos:station:TCOON:031:1,2016-09-01T05:48:00Z,28.4073,-96.7122,0.0,1.5,352.0,2.3,'11111222,11111222,11111222' 
TCOON,ioos:station:TCOON:031:1,2016-09-01T05:54:00Z,28.4073,-96.7122,0.0,1.9,348.0,2.4,'11111222,11111222,11111222' 
TCOON,ioos:station:TCOON:031:1,2016-09-01T06:00:00Z,28.4073,-96.7122,0.0,1.7,350.0,2.4,'11111222,11111222,11111222' 
TCOON,ioos:station:TCOON:031:1,2016-09-01T06:06:00Z,28.4073,-96.7122,0.0,1.6,331.0,2.5,'11111222,11111222,11111222' 
TCOON,ioos:station:TCOON:031:1,2016-09-01T06:12:00Z,28.4073,-96.7122,0.0,1.7,337.0,2.3,'11111222,11111222,11111222' 
TCOON,ioos:station:TCOON:031:1,2016-09-01T06:18:00Z,28.4073,-96.7122,0.0,1.7,337.0,2.3,'1111122,1111122,1111122' 
TCOON,ioos:station:TCOON:031:1,2016-09-01T06:24:00Z,28.4073,-96.7122,0.0,2.2,325.0,2.8,'11111222,11111222,11111222' 
TCOON,ioos:station:TCOON:031:1,2016-09-01T06:30:00Z,28.4073,-96.7122,0.0,1.9,337.0,2.8,'11111222,11111222,11111222' 
TCOON,ioos:station:TCOON:031:1,2016-09-01T06:36:00Z,28.4073,-96.7122,0.0,1.7,339.0,2.4,'11111222,11111222,11111222' 
TCOON,ioos:station:TCOON:031:1,2016-09-01T06:42:00Z,28.4073,-96.7122,0.0,1.5,328.0,2.2,'11111222,11111222,11111222' 
TCOON,ioos:station:TCOON:031:1,2016-09-01T06:48:00Z,28.4073,-96.7122,0.0,1.9,334.0,2.3,'11111222,11111222,11111222' 
TCOON,ioos:station:TCOON:031:1,2016-09-01T06:54:00Z,28.4073,-96.7122,0.0,2.0,337.0,2.8,'11111222,11111222,11111222' 
TCOON,ioos:station:TCOON:031:1,2016-09-01T07:00:00Z,28.4073,-96.7122,0.0,1.9,332.0,2.3,'11111222,11111222,11111222' 
TCOON,ioos:station:TCOON:031:1,2016-09-01T07:06:00Z,28.4073,-96.7122,0.0,2.0,334.0,2.6,'11111222,11111222,11111222' 
TCOON,ioos:station:TCOON:031:1,2016-09-01T07:12:00Z,28.4073,-96.7122,0.0,2.0,344.0,2.8,'11111222,11111222,11111222' 
TCOON,ioos:station:TCOON:031:1,2016-09-01T07:18:00Z,28.4073,-96.7122,0.0,2.0,344.0,2.8,'1111122,1111122,1111122' 
TCOON,ioos:station:TCOON:031:1,2016-09-01T07:24:00Z,28.4073,-96.7122,0.0,1.9,333.0,2.6,'11111222,11111222,11111222' 
TCOON,ioos:station:TCOON:031:1,2016-09-01T07:30:00Z,28.4073,-96.7122,0.0,1.8,343.0,2.5,'11111222,11111222,11111222' 
TCOON,ioos:station:TCOON:031:1,2016-09-01T07:36:00Z,28.4073,-96.7122,0.0,2.0,339.0,2.5,'11111222,11111222,11111222' 
TCOON,ioos:station:TCOON:031:1,2016-09-01T07:42:00Z,28.4073,-96.7122,0.0,1.9,331.0,2.5,'11111222,11111222,11111222' 
TCOON,ioos:station:TCOON:031:1,2016-09-01T07:48:00Z,28.4073,-96.7122,0.0,1.6,335.0,2.4,'11111222,11111222,11111222' 
TCOON,ioos:station:TCOON:031:1,2016-09-01T07:54:00Z,28.4073,-96.7122,0.0,1.9,335.0,2.6,'11111222,11111222,11111222' 
TCOON,ioos:station:TCOON:031:1,2016-09-01T08:00:00Z,28.4073,-96.7122,0.0,2.1,333.0,2.6,'11111222,11111222,11111222' 
TCOON,ioos:station:TCOON:031:1,2016-09-01T08:06:00Z,28.4073,-96.7122,0.0,2.2,335.0,2.6,'11111222,11111222,11111222' 
TCOON,ioos:station:TCOON:031:1,2016-09-01T08:12:00Z,28.4073,-96.7122,0.0,2.0,333.0,3.0,'11111222,11111222,11111222' 
TCOON,ioos:station:TCOON:031:1,2016-09-01T08:18:00Z,28.4073,-96.7122,0.0,2.0,333.0,3.0,'1111122,1111122,1111122' 
TCOON,ioos:station:TCOON:031:1,2016-09-01T08:24:00Z,28.4073,-96.7122,0.0,1.9,345.0,2.4,'11111222,11111222,11111222' 
TCOON,ioos:station:TCOON:031:1,2016-09-01T08:30:00Z,28.4073,-96.7122,0.0,1.9,346.0,2.5,'11111222,11111222,11111222' 
TCOON,ioos:station:TCOON:031:1,2016-09-01T08:36:00Z,28.4073,-96.7122,0.0,1.6,343.0,2.2,'11111222,11111222,11111222' 
TCOON,ioos:station:TCOON:031:1,2016-09-01T08:42:00Z,28.4073,-96.7122,0.0,1.6,344.0,2.1,'11111222,11111222,11111222' 
TCOON,ioos:station:TCOON:031:1,2016-09-01T08:48:00Z,28.4073,-96.7122,0.0,1.5,339.0,1.8,'11111222,11111222,11111222' 
TCOON,ioos:station:TCOON:031:1,2016-09-01T08:54:00Z,28.4073,-96.7122,0.0,1.3,342.0,2.2,'11111222,11111222,11111222' 
TCOON,ioos:station:TCOON:031:1,2016-09-01T09:00:00Z,28.4073,-96.7122,0.0,1.5,338.0,1.9,'11111222,11111222,11111222' 
TCOON,ioos:station:TCOON:031:1,2016-09-01T09:06:00Z,28.4073,-96.7122,0.0,1.6,341.0,2.0,'11111222,11111222,11111222' 
TCOON,ioos:station:TCOON:031:1,2016-09-01T09:12:00Z,28.4073,-96.7122,0.0,1.5,329.0,1.9,'11111222,11111222,11111222' 
TCOON,ioos:station:TCOON:031:1,2016-09-01T09:18:00Z,28.4073,-96.7122,0.0,1.5,329.0,1.9,'1111122,1111122,1111122' 
TCOON,ioos:station:TCOON:031:1,2016-09-01T09:24:00Z,28.4073,-96.7122,0.0,1.9,329.0,2.4,'11111222,11111222,11111222' 
TCOON,ioos:station:TCOON:031:1,2016-09-01T09:30:00Z,28.4073,-96.7122,0.0,1.9,327.0,2.6,'11111222,11111222,11111222' 
TCOON,ioos:station:TCOON:031:1,2016-09-01T09:36:00Z,28.4073,-96.7122,0.0,1.9,336.0,2.5,'11111222,11111222,11111222' 
TCOON,ioos:station:TCOON:031:1,2016-09-01T09:42:00Z,28.4073,-96.7122,0.0,1.9,349.0,2.6,'11111222,11111222,11111222' 
TCOON,ioos:station:TCOON:031:1,2016-09-01T09:48:00Z,28.4073,-96.7122,0.0,1.8,337.0,2.3,'11111222,11111222,11111222' 
TCOON,ioos:station:TCOON:031:1,2016-09-01T09:54:00Z,28.4073,-96.7122,0.0,1.7,332.0,2.2,'11111222,11111222,11111222' 
TCOON,ioos:station:TCOON:031:1,2016-09-01T10:00:00Z,28.4073,-96.7122,0.0,2.0,327.0,2.7,'11111222,11111222,11111222' 
TCOON,ioos:station:TCOON:031:1,2016-09-01T10:06:00Z,28.4073,-96.7122,0.0,1.6,329.0,2.3,'11111222,11111222,11111222' 
TCOON,ioos:station:TCOON:031:1,2016-09-01T10:12:00Z,28.4073,-96.7122,0.0,1.7,329.0,2.4,'11111222,11111222,11111222' 
TCOON,ioos:station:TCOON:031:1,2016-09-01T10:18:00Z,28.4073,-96.7122,0.0,1.7,329.0,2.4,'1111122,1111122,1111122' 
TCOON,ioos:station:TCOON:031:1,2016-09-01T10:24:00Z,28.4073,-96.7122,0.0,1.5,337.0,2.5,'11111222,11111222,11111222' 
TCOON,ioos:station:TCOON:031:1,2016-09-01T10:30:00Z,28.4073,-96.7122,0.0,1.8,336.0,2.2,'11111222,11111222,11111222' 
TCOON,ioos:station:TCOON:031:1,2016-09-01T10:36:00Z,28.4073,-96.7122,0.0,1.6,328.0,2.3,'11111222,11111222,11111222' 
TCOON,ioos:station:TCOON:031:1,2016-09-01T10:42:00Z,28.4073,-96.7122,0.0,1.5,330.0,1.9,'11111222,11111222,11111222' 
TCOON,ioos:station:TCOON:031:1,2016-09-01T10:48:00Z,28.4073,-96.7122,0.0,1.3,334.0,1.9,'11111222,11111222,11111222' 
TCOON,ioos:station:TCOON:031:1,2016-09-01T10:54:00Z,28.4073,-96.7122,0.0,1.4,339.0,1.6,'11111222,11111222,11111222' 
TCOON,ioos:station:TCOON:031:1,2016-09-01T11:00:00Z,28.4073,-96.7122,0.0,1.6,328.0,2.0,'11111222,11111222,11111222' 
TCOON,ioos:station:TCOON:031:1,2016-09-01T11:06:00Z,28.4073,-96.7122,0.0,1.8,322.0,2.3,'11111222,11111222,11111222' 
TCOON,ioos:station:TCOON:031:1,2016-09-01T11:12:00Z,28.4073,-96.7122,0.0,1.5,320.0,2.3,'11111222,11111222,11111222' 
TCOON,ioos:station:TCOON:031:1,2016-09-01T11:18:00Z,28.4073,-96.7122,0.0,1.5,320.0,2.3,'1111122,1111122,1111122' 
TCOON,ioos:station:TCOON:031:1,2016-09-01T11:24:00Z,28.4073,-96.7122,0.0,1.5,303.0,2.0,'11111222,11111222,11111222' 
TCOON,ioos:station:TCOON:031:1,2016-09-01T11:30:00Z,28.4073,-96.7122,0.0,1.6,318.0,2.1,'11111222,11111222,11111222' 
TCOON,ioos:station:TCOON:031:1,2016-09-01T11:36:00Z,28.4073,-96.7122,0.0,2.0,325.0,2.7,'11111222,11111222,11111222' 
TCOON,ioos:station:TCOON:031:1,2016-09-01T11:42:00Z,28.4073,-96.7122,0.0,1.9,324.0,2.8,'11111222,11111222,11111222' 
TCOON,ioos:station:TCOON:031:1,2016-09-01T11:48:00Z,28.4073,-96.7122,0.0,2.0,328.0,2.7,'11111222,11111222,11111222' 
TCOON,ioos:station:TCOON:031:1,2016-09-01T11:54:00Z,28.4073,-96.7122,0.0,2.2,328.0,2.9,'11111222,11111222,11111222' 
TCOON,ioos:station:TCOON:031:1,2016-09-01T12:00:00Z,28.4073,-96.7122,0.0,2.3,332.0,3.2,'11111222,11111222,11111222' 
TCOON,ioos:station:TCOON:031:1,2016-09-01T12:06:00Z,28.4073,-96.7122,0.0,2.3,343.0,4.0,'11111222,11111222,11111222' 
TCOON,ioos:station:TCOON:031:1,2016-09-01T12:12:00Z,28.4073,-96.7122,0.0,2.5,347.0,3.9,'11111222,11111222,11111222' 
TCOON,ioos:station:TCOON:031:1,2016-09-01T12:18:00Z,28.4073,-96.7122,0.0,2.5,347.0,3.9,'1111122,1111122,1111122' 
TCOON,ioos:station:TCOON:031:1,2016-09-01T12:24:00Z,28.4073,-96.7122,0.0,2.1,350.0,3.1,'11111222,11111222,11111222' 
TCOON,ioos:station:TCOON:031:1,2016-09-01T12:30:00Z,28.4073,-96.7122,0.0,2.7,353.0,3.6,'11111222,11111222,11111222' 
TCOON,ioos:station:TCOON:031:1,2016-09-01T12:36:00Z,28.4073,-96.7122,0.0,2.6,358.0,3.5,'11111222,11111222,11111222' 
TCOON,ioos:station:TCOON:031:1,2016-09-01T12:42:00Z,28.4073,-96.7122,0.0,2.8,355.0,3.7,'11111222,11111222,11111222' 
TCOON,ioos:station:TCOON:031:1,2016-09-01T12:48:00Z,28.4073,-96.7122,0.0,2.7,1.0,3.6,'11111222,11111222,11111222' 
TCOON,ioos:station:TCOON:031:1,2016-09-01T12:54:00Z,28.4073,-96.7122,0.0,2.2,353.0,3.5,'11111222,11111222,11111222' 
TCOON,ioos:station:TCOON:031:1,2016-09-01T13:00:00Z,28.4073,-96.7122,0.0,2.4,349.0,3.3,'11111222,11111222,11111222' 
TCOON,ioos:station:TCOON:031:1,2016-09-01T13:06:00Z,28.4073,-96.7122,0.0,2.5,346.0,3.5,'11111222,11111222,11111222' 
TCOON,ioos:station:TCOON:031:1,2016-09-01T13:12:00Z,28.4073,-96.7122,0.0,2.5,343.0,3.3,'11111222,11111222,11111222' 
TCOON,ioos:station:TCOON:031:1,2016-09-01T13:18:00Z,28.4073,-96.7122,0.0,2.5,343.0,3.3,'1111122,1111122,1111122' 
TCOON,ioos:station:TCOON:031:1,2016-09-01T13:24:00Z,28.4073,-96.7122,0.0,3.1,342.0,4.3,'11111222,11111222,11111222' 
TCOON,ioos:station:TCOON:031:1,2016-09-01T13:30:00Z,28.4073,-96.7122,0.0,2.9,348.0,4.9,'11111222,11111222,11111222' 
TCOON,ioos:station:TCOON:031:1,2016-09-01T13:36:00Z,28.4073,-96.7122,0.0,2.9,345.0,4.4,'11111222,11111222,11111222' 
TCOON,ioos:station:TCOON:031:1,2016-09-01T13:42:00Z,28.4073,-96.7122,0.0,2.8,353.0,3.6,'11111222,11111222,11111222' 
TCOON,ioos:station:TCOON:031:1,2016-09-01T13:48:00Z,28.4073,-96.7122,0.0,2.6,357.0,4.1,'11111222,11111222,11111222' 
TCOON,ioos:station:TCOON:031:1,2016-09-01T13:54:00Z,28.4073,-96.7122,0.0,3.0,356.0,4.1,'11111222,11111222,11111222' 
TCOON,ioos:station:TCOON:031:1,2016-09-01T14:00:00Z,28.4073,-96.7122,0.0,3.2,6.0,4.1,'11111222,11111222,11111222' 
TCOON,ioos:station:TCOON:031:1,2016-09-01T14:06:00Z,28.4073,-96.7122,0.0,2.4,352.0,4.5,'11111222,11111222,11111222' 
TCOON,ioos:station:TCOON:031:1,2016-09-01T14:12:00Z,28.4073,-96.7122,0.0,2.8,1.0,5.0,'11111222,11111222,11111222' 
TCOON,ioos:station:TCOON:031:1,2016-09-01T14:18:00Z,28.4073,-96.7122,0.0,3.0,3.0,4.3,'11111222,11111222,11111222' 
TCOON,ioos:station:TCOON:031:1,2016-09-01T14:24:00Z,28.4073,-96.7122,0.0,2.3,355.0,4.7,'11111222,11111222,11111222' 
TCOON,ioos:station:TCOON:031:1,2016-09-01T14:30:00Z,28.4073,-96.7122,0.0,3.1,359.0,4.3,'11111222,11111222,11111222' 
TCOON,ioos:station:TCOON:031:1,2016-09-01T14:36:00Z,28.4073,-96.7122,0.0,2.6,355.0,4.9,'11111222,11111222,11111222' 
TCOON,ioos:station:TCOON:031:1,2016-09-01T14:42:00Z,28.4073,-96.7122,0.0,2.5,351.0,3.6,'11111222,11111222,11111222' 
TCOON,ioos:station:TCOON:031:1,2016-09-01T14:48:00Z,28.4073,-96.7122,0.0,2.7,346.0,4.0,'11111222,11111222,11111222' 
TCOON,ioos:station:TCOON:031:1,2016-09-01T14:54:00Z,28.4073,-96.7122,0.0,2.3,4.0,4.8,'11111222,11111222,11111222' 
TCOON,ioos:station:TCOON:031:1,2016-09-01T15:00:00Z,28.4073,-96.7122,0.0,3.0,349.0,4.1,'11111222,11111222,11111222' 
TCOON,ioos:station:TCOON:031:1,2016-09-01T15:06:00Z,28.4073,-96.7122,0.0,2.5,2.0,4.0,'11111222,11111222,11111222' 
TCOON,ioos:station:TCOON:031:1,2016-09-01T15:12:00Z,28.4073,-96.7122,0.0,2.9,22.0,4.4,'11111222,11111222,11111222' 
TCOON,ioos:station:TCOON:031:1,2016-09-01T15:18:00Z,28.4073,-96.7122,0.0,3.1,344.0,4.1,'11111222,11111222,11111222' 
TCOON,ioos:station:TCOON:031:1,2016-09-01T15:24:00Z,28.4073,-96.7122,0.0,3.3,0.0,4.9,'11111222,11111222,11111222' 
TCOON,ioos:station:TCOON:031:1,2016-09-01T15:30:00Z,28.4073,-96.7122,0.0,3.5,359.0,5.3,'11111222,11111222,11111222' 
TCOON,ioos:station:TCOON:031:1,2016-09-01T15:36:00Z,28.4073,-96.7122,0.0,3.1,357.0,5.5,'11111222,11111222,11111222' 
TCOON,ioos:station:TCOON:031:1,2016-09-01T15:42:00Z,28.4073,-96.7122,0.0,3.3,14.0,4.4,'11111222,11111222,11111222' 
TCOON,ioos:station:TCOON:031:1,2016-09-01T15:48:00Z,28.4073,-96.7122,0.0,2.3,17.0,5.4,'11111222,11111222,11111222' 
TCOON,ioos:station:TCOON:031:1,2016-09-01T15:54:00Z,28.4073,-96.7122,0.0,3.5,349.0,5.1,'11111222,11111222,11111222' 
TCOON,ioos:station:TCOON:031:1,2016-09-01T16:00:00Z,28.4073,-96.7122,0.0,3.4,14.0,5.0,'11111222,11111222,11111222' 
TCOON,ioos:station:TCOON:031:1,2016-09-01T16:06:00Z,28.4073,-96.7122,0.0,3.3,9.0,5.3,'11111222,11111222,11111222' 
TCOON,ioos:station:TCOON:031:1,2016-09-01T16:12:00Z,28.4073,-96.7122,0.0,3.8,15.0,6.0,'11111222,11111222,11111222' 
TCOON,ioos:station:TCOON:031:1,2016-09-01T16:18:00Z,28.4073,-96.7122,0.0,4.2,9.0,5.7,'11111222,11111222,11111222' 
TCOON,ioos:station:TCOON:031:1,2016-09-01T16:24:00Z,28.4073,-96.7122,0.0,3.3,18.0,5.2,'11111222,11111222,11111222' 
TCOON,ioos:station:TCOON:031:1,2016-09-01T16:30:00Z,28.4073,-96.7122,0.0,3.4,22.0,5.4,'11111222,11111222,11111222' 
TCOON,ioos:station:TCOON:031:1,2016-09-01T16:36:00Z,28.4073,-96.7122,0.0,4.0,28.0,5.5,'11111222,11111222,11111222' 
TCOON,ioos:station:TCOON:031:1,2016-09-01T16:42:00Z,28.4073,-96.7122,0.0,3.2,23.0,6.2,'11111222,11111222,11111222' 
TCOON,ioos:station:TCOON:031:1,2016-09-01T16:48:00Z,28.4073,-96.7122,0.0,2.4,3.0,5.6,'11111222,11111222,11111222' 
TCOON,ioos:station:TCOON:031:1,2016-09-01T16:54:00Z,28.4073,-96.7122,0.0,4.5,16.0,5.8,'11111222,11111222,11111222' 
TCOON,ioos:station:TCOON:031:1,2016-09-01T17:00:00Z,28.4073,-96.7122,0.0,3.8,6.0,5.5,'11111222,11111222,11111222' 
TCOON,ioos:station:TCOON:031:1,2016-09-01T17:06:00Z,28.4073,-96.7122,0.0,3.1,10.0,4.9,'11111222,11111222,11111222' 
TCOON,ioos:station:TCOON:031:1,2016-09-01T17:12:00Z,28.4073,-96.7122,0.0,3.3,17.0,4.7,'11111222,11111222,11111222' 
TCOON,ioos:station:TCOON:031:1,2016-09-01T17:18:00Z,28.4073,-96.7122,0.0,2.9,31.0,4.9,'11111222,11111222,11111222' 
TCOON,ioos:station:TCOON:031:1,2016-09-01T17:24:00Z,28.4073,-96.7122,0.0,3.3,32.0,5.1,'11111222,11111222,11111222' 
TCOON,ioos:station:TCOON:031:1,2016-09-01T17:30:00Z,28.4073,-96.7122,0.0,3.1,34.0,5.5,'11111222,11111222,11111222' 
TCOON,ioos:station:TCOON:031:1,2016-09-01T17:36:00Z,28.4073,-96.7122,0.0,3.2,43.0,4.4,'11111222,11111222,11111222' 
TCOON,ioos:station:TCOON:031:1,2016-09-01T17:42:00Z,28.4073,-96.7122,0.0,3.7,19.0,5.1,'11111222,11111222,11111222' 
TCOON,ioos:station:TCOON:031:1,2016-09-01T17:48:00Z,28.4073,-96.7122,0.0,3.8,27.0,4.9,'11111222,11111222,11111222' 
TCOON,ioos:station:TCOON:031:1,2016-09-01T17:54:00Z,28.4073,-96.7122,0.0,3.1,20.0,4.7,'11111222,11111222,11111222' 
TCOON,ioos:station:TCOON:031:1,2016-09-01T18:00:00Z,28.4073,-96.7122,0.0,3.0,18.0,4.7,'11111222,11111222,11111222' 
TCOON,ioos:station:TCOON:031:1,2016-09-01T18:06:00Z,28.4073,-96.7122,0.0,3.4,12.0,4.9,'11111222,11111222,11111222' 
TCOON,ioos:station:TCOON:031:1,2016-09-01T18:12:00Z,28.4073,-96.7122,0.0,2.6,1.0,4.6,'11111222,11111222,11111222' 
TCOON,ioos:station:TCOON:031:1,2016-09-01T18:18:00Z,28.4073,-96.7122,0.0,4.0,23.0,5.9,'11111222,11111222,11111222' 
TCOON,ioos:station:TCOON:031:1,2016-09-01T18:24:00Z,28.4073,-96.7122,0.0,2.2,25.0,5.7,'11111222,11111222,11111222' 
TCOON,ioos:station:TCOON:031:1,2016-09-01T18:30:00Z,28.4073,-96.7122,0.0,3.1,11.0,4.4,'11111222,11111222,11111222' 
TCOON,ioos:station:TCOON:031:1,2016-09-01T18:36:00Z,28.4073,-96.7122,0.0,2.7,16.0,4.6,'11111222,11111222,11111222' 
TCOON,ioos:station:TCOON:031:1,2016-09-01T18:42:00Z,28.4073,-96.7122,0.0,3.5,20.0,4.8,'11111222,11111222,11111222' 
TCOON,ioos:station:TCOON:031:1,2016-09-01T18:48:00Z,28.4073,-96.7122,0.0,3.1,16.0,4.9,'11111222,11111222,11111222' 
TCOON,ioos:station:TCOON:031:1,2016-09-01T18:54:00Z,28.4073,-96.7122,0.0,4.8,23.0,5.9,'11111222,11111222,11111222' 
TCOON,ioos:station:TCOON:031:1,2016-09-01T19:00:00Z,28.4073,-96.7122,0.0,4.1,18.0,6.4,'11111222,11111222,11111222' 
TCOON,ioos:station:TCOON:031:1,2016-09-01T19:06:00Z,28.4073,-96.7122,0.0,2.0,17.0,5.4,'11111222,11111222,11111222' 
TCOON,ioos:station:TCOON:031:1,2016-09-01T19:12:00Z,28.4073,-96.7122,0.0,4.0,10.0,5.3,'11111222,11111222,11111222' 
TCOON,ioos:station:TCOON:031:1,2016-09-01T19:18:00Z,28.4073,-96.7122,0.0,3.0,356.0,5.4,'11111222,11111222,11111222' 
TCOON,ioos:station:TCOON:031:1,2016-09-01T19:24:00Z,28.4073,-96.7122,0.0,4.0,14.0,5.1,'11111222,11111222,11111222' 
TCOON,ioos:station:TCOON:031:1,2016-09-01T19:30:00Z,28.4073,-96.7122,0.0,2.3,35.0,5.1,'11111222,11111222,11111222' 
TCOON,ioos:station:TCOON:031:1,2016-09-01T19:36:00Z,28.4073,-96.7122,0.0,2.5,27.0,4.6,'11111222,11111222,11111222' 
TCOON,ioos:station:TCOON:031:1,2016-09-01T19:42:00Z,28.4073,-96.7122,0.0,2.9,38.0,4.4,'11111222,11111222,11111222' 
TCOON,ioos:station:TCOON:031:1,2016-09-01T19:48:00Z,28.4073,-96.7122,0.0,3.6,14.0,5.2,'11111222,11111222,11111222' 
TCOON,ioos:station:TCOON:031:1,2016-09-01T19:54:00Z,28.4073,-96.7122,0.0,1.8,18.0,4.2,'11111222,11111222,11111222' 
TCOON,ioos:station:TCOON:031:1,2016-09-01T20:00:00Z,28.4073,-96.7122,0.0,3.5,34.0,6.0,'11111222,11111222,11111222' 
TCOON,ioos:station:TCOON:031:1,2016-09-01T20:06:00Z,28.4073,-96.7122,0.0,3.0,22.0,4.4,'11111222,11111222,11111222' 
TCOON,ioos:station:TCOON:031:1,2016-09-01T20:12:00Z,28.4073,-96.7122,0.0,3.1,20.0,5.4,'11111222,11111222,11111222' 
TCOON,ioos:station:TCOON:031:1,2016-09-01T20:18:00Z,28.4073,-96.7122,0.0,3.1,20.0,5.4,'1111122,1111122,1111122' 